Brooksville, FL

1:20 AM EDT on August 20, 2017 (GMT -0400)
Hernando County

Weather History for KBKV - February, 2013

Change the Weather History Date:

Friday, February 1, 2013

  Actual Average Record
Temperature  
Mean Temperature 50 °F -  
Max Temperature 66 °F 68 °F 82 °F (2002)
Min Temperature 35 °F 44 °F 28 °F (2009)
Degree Days  
Heating Degree Days 14    
Moisture  
Dew Point 31 °F    
Average Humidity 55    
Maximum Humidity 93    
Minimum Humidity 16    
Precipitation  
Precipitation 0.00 in - - ()
Sea Level Pressure  
Sea Level Pressure 30.32 in    
Wind  
Wind Speed 4 mph (NNW)    
Max Wind Speed 14 mph    
Max Gust Speed 18 mph    
Visibility 10 miles    
Events      
Averages and records for this station are not official NWS values.
T = Trace of Precipitation, MM = Missing Value Source: NWS Daily Summary

Daily Weather History Graph

Daily Weather History Graph

Search for Another Location

Airport or City:

Trip Planner

Search our weather history database for the weather conditions in past years. The results will help you decide how hot, cold, wet, or windy it might be!

Date:

Astronomy

Feb. 01, 2013 Rise Set
Actual Time 7:17 AM EST 6:09 PM EST
Civil Twilight 6:52 AM EST 6:34 PM EST
Nautical Twilight 6:24 AM EST 7:02 PM EST
Astronomical Twilight 5:56 AM EST 7:30 PM EST
Moon 11:39 PM EST (2/1) 10:23 AM EST (2/1)
Length of Visible Light 11h 41m
Length of Day
10h 52m
Waning Gibbous, 70% of the Moon is Illuminated
Feb 1
Waning Gibbous
Feb 3
Last Quarter
Feb 10
New
Feb 17
First Quarter
Feb 25
Full

Hourly Weather History & Observations

Time (EST) Temp. Windchill Dew Point Humidity Pressure Visibility Wind Dir Wind Speed Gust Speed Precip Events Conditions
12:53 AM 37.9 °F - 34.0 °F 86% 30.27 in 10.0 mi Calm Calm - N/A   Clear
1:53 AM 35.1 °F - 32.0 °F 89% 30.27 in 10.0 mi Calm Calm - N/A   Clear
2:53 AM 41.0 °F 38.0 °F 34.0 °F 76% 30.27 in 10.0 mi North 4.6 mph - N/A   Clear
3:53 AM 41.0 °F 39.0 °F 30.0 °F 65% 30.28 in 10.0 mi North 3.5 mph - N/A   Clear
4:53 AM 36.0 °F 33.3 °F 28.9 °F 76% 30.29 in 10.0 mi North 3.5 mph - N/A   Clear
5:53 AM 39.9 °F 35.8 °F 28.0 °F 63% 30.30 in 10.0 mi North 5.8 mph - N/A   Clear
6:53 AM 41.0 °F 38.0 °F 28.0 °F 60% 30.33 in 10.0 mi North 4.6 mph - N/A   Clear
7:53 AM 42.1 °F 38.4 °F 28.0 °F 58% 30.35 in 10.0 mi North 5.8 mph - N/A   Clear
8:53 AM 51.1 °F - 30.0 °F 44% 30.37 in 10.0 mi North 8.1 mph - N/A   Clear
9:53 AM 57.0 °F - 26.1 °F 30% 30.38 in 10.0 mi North 13.8 mph 18.4 mph N/A   Clear
10:53 AM 62.1 °F - 25.0 °F 24% 30.38 in 10.0 mi North 11.5 mph - N/A   Clear
11:53 AM 64.0 °F - 23.0 °F 21% 30.37 in 10.0 mi NNW 12.7 mph 16.1 mph N/A   Clear
12:53 PM 66.0 °F - 21.9 °F 19% 30.35 in 10.0 mi NNW 9.2 mph - N/A   Clear
1:53 PM 66.9 °F - 21.9 °F 18% 30.31 in 10.0 mi NW 12.7 mph - N/A   Clear
2:53 PM 66.9 °F - 19.0 °F 16% 30.30 in 10.0 mi West 8.1 mph 16.1 mph N/A   Clear
3:53 PM 66.0 °F - 23.0 °F 20% 30.29 in 10.0 mi NW 8.1 mph - N/A   Clear
4:53 PM 63.0 °F - 34.0 °F 34% 30.29 in 10.0 mi West 10.4 mph - N/A   Clear
5:53 PM 60.1 °F - 39.0 °F 46% 30.30 in 10.0 mi NW 8.1 mph - N/A   Clear
6:53 PM 54.0 °F - 41.0 °F 62% 30.30 in 10.0 mi WNW 3.5 mph - N/A   Clear
7:53 PM 50.0 °F - 41.0 °F 71% 30.30 in 10.0 mi Calm Calm - N/A   Clear
8:53 PM 46.9 °F - 39.9 °F 77% 30.31 in 10.0 mi Calm Calm - N/A   Clear
9:53 PM 44.1 °F - 39.9 °F 85% 30.32 in 10.0 mi Calm Calm - N/A   Clear
10:53 PM 39.0 °F - 37.0 °F 93% 30.33 in 10.0 mi Calm Calm - N/A   Clear
11:53 PM 37.9 °F - 36.0 °F 93% 30.32 in 10.0 mi Calm Calm - N/A   Clear